Weather History for KLPR - May, 2013

Change the Weather History Date:

Thursday, May 2, 2013

  Actual Average (KCLE) Record (KCLE)
Temperature  
Mean Temperature 68 °F 56 °F  
Max Temperature 79 °F 65 °F 86 °F (1951)
Min Temperature 57 °F 46 °F 26 °F (1963)
Degree Days  
Heating Degree Days 0 10  
Month to date heating degree days 20  
Since 1 July heating degree days 5531  
Cooling Degree Days 2 1  
Month to date cooling degree days 2  
Year to date cooling degree days 13  
Growing Degree Days 18 (Base 50)    
Moisture  
Dew Point 45 °F    
Average Humidity 45    
Maximum Humidity 60    
Minimum Humidity 30    
Precipitation  
Precipitation 0.00 in 0.11 in 1.16 in (2008)
Month to date precipitation 0.22  
Year to date precipitation 11.70  
Snow  
Snow 0.00 in 0.00 in - ()
Month to date snowfall 0.0  
Since 1 July snowfall 68.1  
Snow Depth -    
Sea Level Pressure  
Sea Level Pressure 30.22 in    
Wind  
Wind Speed 9 mph (SE)    
Max Wind Speed 13 mph    
Max Gust Speed 20 mph    
Visibility 10 miles    
Events      
T = Trace of Precipitation, MM = Missing Value Source: NWS Daily Summary

Daily Weather History Graph

Daily Weather History Graph

Search for Another Location

Airport or City:

Trip Planner

Search our weather history database for the weather conditions in past years. The results will help you decide how hot, cold, wet, or windy it might be!

Date:

Astronomy

May. 02, 2013 Rise Set
Actual Time 6:24 AM EDT 8:27 PM EDT
Civil Twilight 5:54 AM EDT 8:57 PM EDT
Nautical Twilight 5:17 AM EDT 9:34 PM EDT
Astronomical Twilight 4:37 AM EDT 10:15 PM EDT
Moon 2:15 AM EDT (5/2) 1:11 PM EDT (5/2)
Length of Visible Light 15h 03m
Length of Day
14h 03m
Waning Gibbous, 48% of the Moon is Illuminated
May 2
Waning Gibbous
May 9
New
May 18
First Quarter
May 25
Full
May 31
Last Quarter

Hourly Weather History & Observations

Time (EDT) Temp. Dew Point Humidity Pressure Visibility Wind Dir Wind Speed Gust Speed Precip Events Conditions
12:53 AM 66.0 °F 50.0 °F 56% 30.24 in 10.0 mi SE 8.1 mph - N/A   Clear
1:53 AM 64.0 °F 48.0 °F 56% 30.24 in 10.0 mi SSE 9.2 mph - N/A   Clear
2:53 AM 61.0 °F 45.0 °F 56% 30.24 in 10.0 mi SSE 8.1 mph - N/A   Clear
3:53 AM 60.1 °F 42.1 °F 51% 30.23 in 10.0 mi SSE 8.1 mph - N/A   Clear
4:53 AM 60.1 °F 39.9 °F 47% 30.24 in 10.0 mi SSE 9.2 mph - N/A   Clear
5:53 AM 59.0 °F 39.9 °F 49% 30.25 in 10.0 mi SSE 9.2 mph - N/A   Clear
6:53 AM 57.0 °F 41.0 °F 55% 30.26 in 10.0 mi SSE 10.4 mph - N/A   Clear
7:53 AM 61.0 °F 41.0 °F 48% 30.28 in 10.0 mi South 10.4 mph - N/A   Clear
8:53 AM 64.0 °F 42.1 °F 45% 30.30 in 10.0 mi SSE 12.7 mph - N/A   Clear
9:53 AM 68.0 °F 44.1 °F 42% 30.30 in 10.0 mi South 11.5 mph - N/A   Clear
10:53 AM 70.0 °F 46.0 °F 42% 30.29 in 10.0 mi South 12.7 mph - N/A   Clear
11:53 AM 72.0 °F 48.0 °F 43% 30.28 in 10.0 mi South 10.4 mph - N/A   Clear
12:53 PM 73.9 °F 48.0 °F 40% 30.26 in 10.0 mi SSW 8.1 mph - N/A   Clear
1:53 PM 75.9 °F 48.9 °F 38% 30.24 in 10.0 mi SE 10.4 mph 16.1 mph N/A   Clear
2:53 PM 77.0 °F 46.9 °F 34% 30.22 in 10.0 mi SSE 11.5 mph 16.1 mph N/A   Clear
3:53 PM 78.1 °F 45.0 °F 31% 30.20 in 10.0 mi SE 11.5 mph 19.6 mph N/A   Clear
4:53 PM 78.1 °F 44.1 °F 30% 30.19 in 10.0 mi SSE 9.2 mph - N/A   Clear
5:53 PM 73.9 °F 46.9 °F 38% 30.18 in 10.0 mi ESE 10.4 mph 19.6 mph N/A   Clear
6:53 PM 71.1 °F 48.9 °F 45% 30.16 in 10.0 mi NE 5.8 mph - N/A   Clear
7:53 PM 66.9 °F 50.0 °F 54% 30.16 in 10.0 mi ENE 5.8 mph - N/A   Clear
8:53 PM 64.0 °F 50.0 °F 60% 30.16 in 10.0 mi East 4.6 mph - N/A   Clear
9:53 PM 68.0 °F 42.1 °F 39% 30.16 in 10.0 mi ESE 5.8 mph - N/A   Clear
10:53 PM 68.0 °F 39.0 °F 35% 30.16 in 10.0 mi SE 4.6 mph - N/A   Clear
11:53 PM 64.0 °F 39.9 °F 41% 30.15 in 10.0 mi SSE 8.1 mph - N/A   Clear